STARLINK-1208 (45205 NORAD) Tracking and Keplerian Element Data

This shows tracking and keplerian element data for the satellite.

Feedback or suggestion? Click here.




ElementValue
Catalog45205
NameSTARLINK-1208
Epoch Orbit753
Epoch Day94.25001157
Epoch Year2020
RAAN42.8552
Inclination52.9998
Eccentricity0.000872
Argument of Perigee325.5116
Mean Anonmoly165.5149
Mean Motion15.62721521
Decay Rate0.00039901
L11 45205U 20012AD 20094.25001157 .00039901 00000-0 43929-3 0 9999
L22 45205 52.9998 42.8552 0008720 325.5116 165.5149 15.62721521 7534

Live tracking and technical data element details for STARLINK-1208 (NORAD 45205). STARLINK-1208 can be tracked NOW for your location showing map with azimuth and elevation plus other details from your city location.

Track the satellite on the map from your city or location and see movement details for azimuth, elevation, latitude, longitude, range, height, and movement on the map or in text.







IsCatalogInMostPopularTable: catalog: 45205, numindb: 9
Update: records affected: 1



GetName: 45205 STARLINK-1208

Hit Count: updated at: Tue, 07 Apr 2020 17:27:16 GMT